Amarillo, TX

11:26 PM CST on January 21, 2018 (GMT -0600)
Amarillo International

Weather History for KAMA - July, 2013

Change the Weather History Date:

Saturday, July 6, 2013

  Actual Average Record
Temperature  
Mean Temperature 84 °F 78 °F  
Max Temperature 96 °F 92 °F 104 °F (1998)
Min Temperature 71 °F 65 °F 54 °F (1997)
Degree Days  
Heating Degree Days 0 0  
Month to date heating degree days 0 0  
Since 1 June heating degree days 0 7  
Since 1 July heating degree days 0 0  
Cooling Degree Days 19 13  
Month to date cooling degree days 61 78  
Year to date cooling degree days 700 491  
Since 1 June cooling degree days 452 366  
Growing Degree Days 34 (Base 50)    
Moisture  
Dew Point 47 °F    
Average Humidity 31    
Maximum Humidity 44    
Minimum Humidity 17    
Precipitation  
Precipitation 0.00 in 0.08 in 1.39 in (1960)
Month to date precipitation 0.04 0.52  
Year to date precipitation 9.13 10.04  
Snow  
Snow 0.00 in 0.00 in 0.00 in ()
Month to date snowfall 0.0 0.0  
Since 1 June snowfall 0.0 0.0  
Since 1 July snowfall 0.0 0.0  
Snow Depth 0.00 in    
Sea Level Pressure  
Sea Level Pressure 29.77 in    
Wind  
Wind Speed 21 mph (South)    
Max Wind Speed 32 mph    
Max Gust Speed 41 mph    
Visibility 10 miles    
Events      
T = Trace of Precipitation, MM = Missing Value Source: NWS Daily Summary

Daily Weather History Graph

Daily Weather History Graph

Search for Another Location

Airport or City:

Trip Planner

Search our weather history database for the weather conditions in past years. The results will help you decide how hot, cold, wet, or windy it might be!

Date:

Astronomy

Jul. 06, 2013 Rise Set
Actual Time 6:38 AM CDT 9:04 PM CDT
Civil Twilight 6:08 AM CDT 9:34 PM CDT
Nautical Twilight 5:32 AM CDT 10:10 PM CDT
Astronomical Twilight 4:52 AM CDT 10:50 PM CDT
Moon 5:24 AM CDT (7/6) 7:49 PM CDT (7/6)
Length of Visible Light 15h 25m
Length of Day
14h 26m
Waning Crescent, 2% of the Moon is Illuminated
Jul 6
Waning Crescent
Jul 8
New
Jul 15
First Quarter
Jul 22
Full
Jul 29
Last Quarter

Hourly Weather History & Observations

Time (CDT) Temp. Dew Point Humidity Pressure Visibility Wind Dir Wind Speed Gust Speed Precip Events Conditions
12:53 AM 81.0 °F 45.0 °F 28% 29.75 in 10.0 mi South 19.6 mph 27.6 mph N/A   Overcast
1:53 AM 80.1 °F 44.1 °F 28% 29.75 in 10.0 mi South 23.0 mph 33.4 mph N/A   Partly Cloudy
2:53 AM 78.1 °F 45.0 °F 31% 29.77 in 10.0 mi South 20.7 mph - N/A   Mostly Cloudy
3:53 AM 75.9 °F 45.0 °F 33% 29.78 in 10.0 mi South 19.6 mph - N/A   Partly Cloudy
4:53 AM 73.9 °F 46.0 °F 37% 29.77 in 10.0 mi South 19.6 mph - N/A   Clear
5:53 AM 73.0 °F 48.0 °F 41% 29.78 in 10.0 mi South 17.3 mph - N/A   Clear
6:53 AM 71.1 °F 48.0 °F 44% 29.78 in 10.0 mi South 17.3 mph - N/A   Clear
7:53 AM 72.0 °F 48.9 °F 44% 29.80 in 10.0 mi South 15.0 mph - N/A   Clear
8:53 AM 77.0 °F 51.1 °F 40% 29.80 in 10.0 mi SSW 24.2 mph 31.1 mph N/A   Clear
9:53 AM 81.0 °F 52.0 °F 36% 29.79 in 10.0 mi SSW 29.9 mph 35.7 mph N/A   Clear
10:53 AM 84.9 °F 51.1 °F 31% 29.79 in 10.0 mi SSW 25.3 mph 36.8 mph N/A   Clear
11:53 AM 88.0 °F 48.9 °F 26% 29.77 in 10.0 mi SSW 29.9 mph 36.8 mph N/A   Clear
12:53 PM 90.0 °F 50.0 °F 25% 29.77 in 10.0 mi South 27.6 mph 35.7 mph N/A   Clear
1:53 PM 91.9 °F 48.0 °F 22% 29.76 in 10.0 mi South 28.8 mph 36.8 mph N/A   Clear
2:53 PM 93.9 °F 46.0 °F 19% 29.75 in 10.0 mi South 23.0 mph 34.5 mph N/A   Clear
3:53 PM 93.9 °F 46.0 °F 19% 29.73 in 10.0 mi South 23.0 mph 33.4 mph N/A   Clear
4:53 PM 95.0 °F 44.1 °F 17% 29.73 in 10.0 mi SSW 20.7 mph 29.9 mph N/A   Clear
5:53 PM 93.9 °F 44.1 °F 18% 29.73 in 10.0 mi South 24.2 mph 28.8 mph N/A   Partly Cloudy
6:53 PM 93.0 °F 45.0 °F 19% 29.73 in 10.0 mi South 21.9 mph 31.1 mph N/A   Clear
7:53 PM 90.0 °F 44.1 °F 20% 29.73 in 10.0 mi South 23.0 mph 29.9 mph N/A   Clear
8:53 PM 87.1 °F 43.0 °F 21% 29.75 in 10.0 mi SSE 18.4 mph - N/A   Clear
9:53 PM 84.0 °F 44.1 °F 25% 29.78 in 10.0 mi SSE 16.1 mph - N/A   Clear
10:53 PM 82.0 °F 44.1 °F 26% 29.80 in 10.0 mi SSE 13.8 mph - N/A   Clear
11:53 PM 79.0 °F 45.0 °F 30% 29.81 in 10.0 mi SSE 13.8 mph - N/A   Clear